Leesburg, FL

5:44 PM EDT on July 28, 2016 (GMT -0400)
Leesburg Regional

Weather History for KLEE - November, 2011

Change the Weather History Date:

Sunday, November 13, 2011

  Actual Average Record
Temperature  
Mean Temperature 64 °F -  
Max Temperature 78 °F 75 °F 86 °F (1978)
Min Temperature 51 °F 53 °F 33 °F (1968)
Growing Degree Days 14 (Base 50)    
Moisture  
Dew Point 54 °F    
Average Humidity 72    
Maximum Humidity 94    
Minimum Humidity 42    
Precipitation  
Precipitation 0.00 in - - ()
Sea Level Pressure  
Sea Level Pressure 30.21 in    
Wind  
Wind Speed 2 mph (East)    
Max Wind Speed 10 mph    
Max Gust Speed -    
Visibility 10 miles    
Events      
Averages and records for this station are not official NWS values.
T = Trace of Precipitation, MM = Missing Value Source: NWS Daily Summary

Daily Weather History Graph

Daily Weather History Graph

Search for Another Location

Airport or City:

Trip Planner

Search our weather history database for the weather conditions in past years. The results will help you decide how hot, cold, wet, or windy it might be!

Date:

Astronomy

Nov. 13, 2011 Rise Set
Actual Time 6:48 AM EST 5:34 PM EST
Civil Twilight 6:23 AM EST 5:59 PM EST
Nautical Twilight 5:55 AM EST 6:27 PM EST
Astronomical Twilight 5:26 AM EST 6:55 PM EST
Moon 7:49 PM EST (11/13) 9:11 AM EST (11/13)
Length of Visible Light 11h 35m
Length of Day
10h 45m
Waning Gibbous, 93% of the Moon is Illuminated
Nov 13
Waning Gibbous
Nov 18
Last Quarter
Nov 25
New
Dec 2
First Quarter
Dec 10
Full

Hourly Weather History & Observations

Time (EST) Temp. Dew Point Humidity Pressure Visibility Wind Dir Wind Speed Gust Speed Precip Events Conditions
12:53 AM 55.9 °F 51.1 °F 84% 30.25 in 10.0 mi Calm Calm - N/A   Clear
1:53 AM 54.0 °F 51.1 °F 90% 30.24 in 10.0 mi Calm Calm - N/A   Clear
2:53 AM 55.0 °F 51.1 °F 86% 30.22 in 10.0 mi Calm Calm - N/A   Clear
3:45 AM 51.8 °F 50.0 °F 94% 30.22 in 10.0 mi Calm Calm - N/A   Clear
3:53 AM 52.0 °F 50.0 °F 93% 30.22 in 10.0 mi Calm Calm - N/A   Clear
4:53 AM 52.0 °F 48.9 °F 89% 30.24 in 10.0 mi Calm Calm - N/A   Clear
5:53 AM 52.0 °F 50.0 °F 93% 30.23 in 10.0 mi Calm Calm - N/A   Clear
6:53 AM 52.0 °F 50.0 °F 93% 30.25 in 10.0 mi Calm Calm - N/A   Clear
7:53 AM 55.9 °F 53.1 °F 90% 30.27 in 10.0 mi NNW 5.8 mph - N/A   Clear
8:53 AM 64.0 °F 55.0 °F 73% 30.26 in 10.0 mi East 3.5 mph - N/A   Clear
9:53 AM 71.1 °F 54.0 °F 55% 30.26 in 10.0 mi East 5.8 mph - N/A   Clear
10:53 AM 73.9 °F 55.0 °F 52% 30.25 in 10.0 mi ESE 9.2 mph - N/A   Clear
11:53 AM 73.9 °F 55.0 °F 52% 30.24 in 10.0 mi ESE 9.2 mph - N/A   Overcast
12:53 PM 77.0 °F 55.0 °F 47% 30.20 in 10.0 mi South 10.4 mph - N/A   Mostly Cloudy
1:53 PM 77.0 °F 54.0 °F 45% 30.18 in 10.0 mi South 5.8 mph - N/A   Mostly Cloudy
2:53 PM 78.1 °F 53.1 °F 42% 30.16 in 10.0 mi Variable 4.6 mph - N/A   Scattered Clouds
3:53 PM 78.1 °F 54.0 °F 43% 30.16 in 10.0 mi Calm Calm - N/A   Mostly Cloudy
4:53 PM 75.9 °F 55.0 °F 48% 30.15 in 10.0 mi ESE 4.6 mph - N/A   Clear
5:53 PM 71.1 °F 55.0 °F 57% 30.16 in 10.0 mi East 4.6 mph - N/A   Clear
6:53 PM 68.0 °F 57.0 °F 68% 30.17 in 10.0 mi ENE 4.6 mph - N/A   Clear
7:53 PM 66.0 °F 57.0 °F 73% 30.19 in 10.0 mi East 4.6 mph - N/A   Clear
8:53 PM 64.9 °F 57.0 °F 75% 30.19 in 10.0 mi East 3.5 mph - N/A   Clear
9:53 PM 64.9 °F 57.9 °F 78% 30.19 in 10.0 mi Calm Calm - N/A   Clear
10:53 PM 63.0 °F 57.9 °F 84% 30.19 in 10.0 mi Calm Calm - N/A   Clear
11:53 PM 61.0 °F 57.0 °F 87% 30.19 in 10.0 mi Calm Calm - N/A   Clear